Location: Lincolnton
(35.4660°N, 81.2500°W)
Time: 13:08:22
(UTC-05:00)

Hubble Space Telescope - Visible Passes

Search period start: 01 February 2015 00:00
Search period end: 11 February 2015 00:00
Orbit: 544 x 548 km, 28.5° (Epoch: 31 January)

Date Brightness Start Highest point End Pass type
(mag) Time Alt. Az. Time Alt. Az. Time Alt. Az.
01 Feb 2.0 19:27:28 10° WSW 19:31:11 31° S 19:32:12 27° SSE visible
02 Feb 2.2 19:19:26 10° WSW 19:23:08 30° S 19:24:47 22° SE visible
03 Feb 2.3 19:11:25 10° WSW 19:15:02 28° S 19:17:23 17° SE visible
04 Feb 2.5 19:03:27 10° WSW 19:06:57 26° S 19:10:03 12° SE visible
05 Feb 2.8 18:55:30 10° WSW 18:58:51 23° SSW 19:02:10 10° SE visible
06 Feb 3.0 18:47:36 10° WSW 18:50:43 20° SSW 18:53:48 10° SSE visible
07 Feb 3.3 18:39:49 10° WSW 18:42:35 17° SSW 18:45:18 10° SSE visible
08 Feb 3.5 18:32:11 10° SW 18:34:26 14° SSW 18:36:37 10° SSE visible
09 Feb 3.7 18:24:56 10° SW 18:26:15 11° SSW 18:27:29 10° S visible
